Estación Meteorológica de la Universidad de Murcia
Estación Meteorológica de la Universidad de Murcia
Universidad de Murcia
 

Humedad relativaHumedad relativa

 

Máxima: 97,1 % a las 06:26:00 del día 24/06/2017
Mínima: 15,3 % a las 12:26:00 del día 24/06/2017

||Humedad máxima últimos meses|| ---- ||Humedad mínima últimos meses||


Humedad máxima

  • 1 - 97,1 % del día 24/06/2017
  • 2 - 96,3 % del día 23/06/2017
  • 3 - 91,5 % del día 22/06/2017
  • 4 - 98,5 % del día 21/06/2017
  • 5 - 100 % del día 20/06/2017
  • 6 - 99,9 % del día 19/06/2017
  • 7 - 94 % del día 18/06/2017
  • 8 - 82,6 % del día 17/06/2017
  • 9 - 78 % del día 16/06/2017
  • 10 - 89,6 % del día 15/06/2017
  • 11 - 89,4 % del día 14/06/2017
  • 12 - 85,3 % del día 13/06/2017
  • 13 - 68,8 % del día 12/06/2017
  • 14 - 100 % del día 11/06/2017
  • 15 - 100 % del día 10/06/2017
  • 16 - 100 % del día 09/06/2017
  • 17 - 100 % del día 08/06/2017
  • 18 - 100 % del día 07/06/2017
  • 19 - 100 % del día 06/06/2017
  • 20 - 100 % del día 05/06/2017
  • 21 - 100 % del día 04/06/2017
  • 22 - 94,8 % del día 03/06/2017
  • 23 - 100 % del día 02/06/2017
  • 24 - 100 % del día 01/06/2017
  • 25 - 99,9 % del día 31/05/2017
  • 26 - 100 % del día 30/05/2017
  • 27 - 73,7 % del día 29/05/2017
  • 28 - 65,3 % del día 28/05/2017
  • 29 - 80,6 % del día 27/05/2017
  • 30 - 71,4 % del día 26/05/2017
  • 31 - 85,9 % del día 25/05/2017
  • 32 - 86,3 % del día 24/05/2017
  • 33 - 100 % del día 23/05/2017
  • 34 - 91,6 % del día 22/05/2017
  • 35 - 100 % del día 21/05/2017
  • 36 - 100 % del día 20/05/2017
  • 37 - 100 % del día 19/05/2017
  • 38 - 94,9 % del día 18/05/2017
  • 39 - 72,9 % del día 17/05/2017
  • 40 - 69,5 % del día 16/05/2017
  • 41 - 69,5 % del día 15/05/2017
  • 42 - 69,5 % del día 14/05/2017
  • 43 - 78,9 % del día 13/05/2017
  • 44 - 62,1 % del día 12/05/2017
  • 45 - 100 % del día 11/05/2017
  • 46 - 100 % del día 10/05/2017
  • 47 - 100 % del día 09/05/2017
  • 48 - 85,9 % del día 08/05/2017
  • 49 - 87 % del día 07/05/2017
  • 50 - 100 % del día 06/05/2017
  • 51 - 100 % del día 05/05/2017
  • 52 - 100 % del día 04/05/2017
  • 53 - 100 % del día 03/05/2017
  • 54 - 100 % del día 02/05/2017
  • 55 - 100 % del día 01/05/2017
  • 56 - 100 % del día 30/04/2017
  • 57 - 100 % del día 29/04/2017
  • 58 - 100 % del día 28/04/2017
  • 59 - 100 % del día 27/04/2017
  • 60 - 100 % del día 26/04/2017

||Volver al inicio de la página||


Humedad mínima

  • 1 - 15,3 % del día 24/06/2017
  • 2 - 19,6 % del día 23/06/2017
  • 3 - 20,1 % del día 22/06/2017
  • 4 - 22,9 % del día 21/06/2017
  • 5 - 29,2 % del día 20/06/2017
  • 6 - 43,8 % del día 19/06/2017
  • 7 - 28,3 % del día 18/06/2017
  • 8 - 35,5 % del día 17/06/2017
  • 9 - 20,8 % del día 16/06/2017
  • 10 - 23,1 % del día 15/06/2017
  • 11 - 25,5 % del día 14/06/2017
  • 12 - 26,6 % del día 13/06/2017
  • 13 - 26,8 % del día 12/06/2017
  • 14 - 17,9 % del día 11/06/2017
  • 15 - 28,2 % del día 10/06/2017
  • 16 - 42 % del día 09/06/2017
  • 17 - 42,2 % del día 08/06/2017
  • 18 - 48,6 % del día 07/06/2017
  • 19 - 22,5 % del día 06/06/2017
  • 20 - 22,2 % del día 05/06/2017
  • 21 - 44,5 % del día 04/06/2017
  • 22 - 31,3 % del día 03/06/2017
  • 23 - 35,6 % del día 02/06/2017
  • 24 - 37,7 % del día 01/06/2017
  • 25 - 44,5 % del día 31/05/2017
  • 26 - 41,3 % del día 30/05/2017
  • 27 - 32,8 % del día 29/05/2017
  • 28 - 28,2 % del día 28/05/2017
  • 29 - 31,5 % del día 27/05/2017
  • 30 - 25,3 % del día 26/05/2017
  • 31 - 24 % del día 25/05/2017
  • 32 - 31,5 % del día 24/05/2017
  • 33 - 32,4 % del día 23/05/2017
  • 34 - 27,3 % del día 22/05/2017
  • 35 - 41,7 % del día 21/05/2017
  • 36 - 30 % del día 20/05/2017
  • 37 - 46,4 % del día 19/05/2017
  • 38 - 24,4 % del día 18/05/2017
  • 39 - 19,6 % del día 17/05/2017
  • 40 - 26,4 % del día 16/05/2017
  • 41 - 26,4 % del día 15/05/2017
  • 42 - 26,4 % del día 14/05/2017
  • 43 - 28,4 % del día 13/05/2017
  • 44 - 33,1 % del día 12/05/2017
  • 45 - 20,3 % del día 11/05/2017
  • 46 - 32,2 % del día 10/05/2017
  • 47 - 31 % del día 09/05/2017
  • 48 - 18,6 % del día 08/05/2017
  • 49 - 29,3 % del día 07/05/2017
  • 50 - 25,1 % del día 06/05/2017
  • 51 - 52,2 % del día 05/05/2017
  • 52 - 41,2 % del día 04/05/2017
  • 53 - 29,7 % del día 03/05/2017
  • 54 - 40 % del día 02/05/2017
  • 55 - 93 % del día 01/05/2017
  • 56 - 93 % del día 30/04/2017
  • 57 - 93 % del día 29/04/2017
  • 58 - 93 % del día 28/04/2017
  • 59 - 93 % del día 27/04/2017
  • 60 - 35,6 % del día 26/04/2017

 

|| Temperatura Ambiente|| Velocidad y dirección del viento|| Precipitación|| Radiación Solar Global y PAR|| Temperatura y humedad del suelo|| Presión atmosférica|| Más información|| Volver a la página principal|| Volver al inicio de la página||


Estación Meteorológica de la Universidad de Murcia
http://estacion.um.es/
Informacion actualizada a: 25/06/2017 a las 20:50:00